QAEM 100 R/B, 61071

Orbit data source: Space-Track

QAEM 100 R/B, 61071 is space debris in LEO originally from a launch on Sat, 14 Sep 2024 UTC via a QAEM-100 launch vehicle from the Sharud Missile Test Site (SMTS). Debris objects in space refer to the collection of defunct objects orbiting the Earth. Examples of debris include non-operational satellites, rocket bodies, and fragments generated from explosions, collisions, or faulty payload assembly.

Loading next visibility...
Identifier
61071, 2024-165A
Orbit
LEO
Country
Flag of UnknownUnknown / IRAN
Related business
Flag of IRIslamic Revolutionary Guard Corps (IRGC) (IR)
Manufacturer
IRGC
Mission
Operational spacecraft
Bus & Motor
Unknown
Mass
~200 kg wet, ~200 kg dry
Launch date (UTC)
2024-09-14 (1 year ago)
Launch vehicle
QAEM-100
Launch site
Sharud Missile Test Site (SMTS)
Object type
Payload
Rocket body
Debris
Shape & HBR
Unknown
Radar Cross Section
Medium (>0.1 m² and <1 m²)

Expand to show TLE details & history
Last TLE update: 17 hours ago

TLE from 17 hours ago
0 QAEM 100 R/B
1 61071U 24165A   25261.28189432  .00004649  00000-0  27547-3 0  9997
2 61071  64.0740 209.2941 0043267 321.4723  38.3306 15.11943302 55708
Epoch: 2025-09-18T06:45Z
TLE epoch observation values (Epoch: 2025-09-18T06:45:55.669Z)
Latitude
-0.00003°
Longitude
110.3664°
Altitude
508.84 km
Speed
7.623 km/s
True Right ascension
13h 57m 10s
True Declination
0° 00' 00"
Sunlit
Object was in daylight at epoch
Visualization orbit readout
Latitude
Unknown
Longitude
Unknown
Altitude
Unknown
Speed
Unknown
Apparent Right ascension
Unknown
Apparent Declination
Unknown
Sunlit
N/A
Visualization observer readout
Local Sidereal Time
16:25:05
Azimuth
Unknown
Elevation
Unknown
Doppler factor
Unknown
Orbital elements
Apogee altitude
558.804 km
Perigee altitude
499.034 km
Semi-major axis
6,907.056 km
Eccentricity
0.00433
Inclination
64.074°
RAAN
209.2941°
Arg. of periapsis
321.4723°
True anomaly
38.6394°
Mean anomaly
38.3306°
Eccentric anomaly
38.48487°
Mean motion
3.78097 °/min
Orbital period
95.21 mins
BSTAR
0.00027547
Loading maneuver chart data...
Computing Atmospheric mass density...
Loading historical data...
Loading historical data...
Loading historical data...
Loading historical data...
Loading historical data...
Loading historical data...
Loading historical data...
Other satellites on launch #165 in the year 2024 (2024-09-14 UTC)

Documentation

Showing up to 5 results
|